Weather History for KCVX - January, 2013

Change the Weather History Date:

Monday, January 7, 2013

  Actual Average (KPLN) Record (KPLN)
Temperature  
Mean Temperature 32 °F -  
Max Temperature 39 °F 23 °F 45 °F (2008)
Min Temperature 26 °F 5 °F -21 °F (1973)
Degree Days  
Heating Degree Days 32    
Moisture  
Dew Point 24 °F    
Average Humidity 70    
Maximum Humidity 79    
Minimum Humidity 58    
Precipitation  
Precipitation 0.00 in - - ()
Sea Level Pressure  
Sea Level Pressure 30.05 in    
Wind  
Wind Speed 10 mph (SSW)    
Max Wind Speed 29 mph    
Max Gust Speed 41 mph    
Visibility 10 miles    
Events      
Averages and records for this station are not official NWS values.
T = Trace of Precipitation, MM = Missing Value Source: NWS Daily Summary

Daily Weather History Graph

Daily Weather History Graph

Search for Another Location

Airport or City:

Trip Planner

Search our weather history database for the weather conditions in past years. The results will help you decide how hot, cold, wet, or windy it might be!

Date:

Astronomy

Jan. 07, 2013 Rise Set
Actual Time 8:19 AM EST 5:15 PM EST
Civil Twilight 7:46 AM EST 5:49 PM EST
Nautical Twilight 7:09 AM EST 6:26 PM EST
Astronomical Twilight 6:33 AM EST 7:01 PM EST
Moon 3:39 AM EST (1/7) 1:28 PM EST (1/7)
Length of Visible Light 10h 02m
Length of Day
8h 55m
Waning Crescent, 23% of the Moon is Illuminated
Jan 7
Waning Crescent
Jan 11
New
Jan 18
First Quarter
Jan 26
Full
Feb 3
Last Quarter

Hourly Weather History & Observations

Time (EST) Temp. Windchill Dew Point Humidity Pressure Visibility Wind Dir Wind Speed Gust Speed Precip Events Conditions
12:34 AM 28.6 °F 24.8 °F 20.1 °F 71% 30.24 in 10.0 mi SSW 3.5 mph - N/A   Overcast
12:55 AM 28.2 °F - 19.4 °F 70% 30.23 in 10.0 mi Calm Calm - N/A   Mostly Cloudy
1:15 AM 27.3 °F - 18.9 °F 70% 30.23 in 10.0 mi Calm Calm - N/A   Scattered Clouds
1:34 AM 26.6 °F 22.6 °F 18.5 °F 71% 30.25 in 10.0 mi SSW 3.5 mph - N/A   Scattered Clouds
1:55 AM 27.1 °F 23.2 °F 18.7 °F 70% 30.24 in 10.0 mi South 3.5 mph - N/A   Mostly Cloudy
2:14 AM 26.4 °F 20.9 °F 18.5 °F 72% 30.24 in 10.0 mi SSW 4.6 mph - N/A   Scattered Clouds
2:35 AM 27.0 °F 21.6 °F 19.0 °F 72% 30.24 in 10.0 mi South 4.6 mph - N/A   Scattered Clouds
2:54 AM 26.6 °F 21.2 °F 18.9 °F 73% 30.23 in 10.0 mi SSE 4.6 mph - N/A   Mostly Cloudy
3:15 AM 26.4 °F 22.4 °F 19.0 °F 74% 30.23 in 10.0 mi SSE 3.5 mph - N/A   Overcast
3:34 AM 26.6 °F 21.2 °F 19.4 °F 74% 30.23 in 10.0 mi SSE 4.6 mph - N/A   Overcast
3:55 AM 26.6 °F 20.0 °F 19.8 °F 75% 30.22 in 10.0 mi SSE 5.8 mph - N/A   Overcast
4:15 AM 26.8 °F 20.2 °F 19.9 °F 75% 30.21 in 10.0 mi SSE 5.8 mph - N/A   Overcast
4:35 AM 27.0 °F 19.5 °F 20.1 °F 75% 30.20 in 10.0 mi SSE 6.9 mph - N/A   Overcast
4:55 AM 27.3 °F 19.9 °F 20.1 °F 74% 30.19 in 10.0 mi SSE 6.9 mph - N/A   Overcast
5:14 AM 27.5 °F 20.2 °F 20.7 °F 75% 30.19 in 10.0 mi SSE 6.9 mph - N/A   Overcast
5:35 AM 28.4 °F 21.2 °F 21.7 °F 76% 30.18 in 10.0 mi South 6.9 mph - N/A   Overcast
5:54 AM 29.8 °F 23.0 °F 22.8 °F 75% 30.18 in 10.0 mi SSW 6.9 mph - N/A   Overcast
6:15 AM 30.2 °F 24.3 °F 23.5 °F 76% 30.17 in 10.0 mi South 5.8 mph - N/A   Overcast
6:34 AM 30.7 °F 23.3 °F 23.9 °F 76% 30.16 in 10.0 mi SSW 8.1 mph - N/A   Overcast
6:54 AM 31.1 °F 23.7 °F 24.3 °F 76% 30.17 in 10.0 mi South 8.1 mph - N/A   Overcast
7:35 AM 30.7 °F 23.3 °F 24.1 °F 76% 30.15 in 10.0 mi South 8.1 mph - N/A   Overcast
7:54 AM 30.9 °F 22.2 °F 24.3 °F 76% 30.14 in 10.0 mi South 10.4 mph 18.4 mph N/A   Overcast
8:15 AM 30.7 °F 22.0 °F 24.3 °F 77% 30.13 in 10.0 mi South 10.4 mph 19.6 mph N/A   Overcast
8:35 AM 30.4 °F 20.5 °F 23.9 °F 77% 30.12 in 10.0 mi South 12.7 mph 20.7 mph N/A   Overcast
8:54 AM 29.8 °F 20.9 °F 23.9 °F 79% 30.12 in 10.0 mi South 10.4 mph 18.4 mph N/A   Mostly Cloudy
9:15 AM 30.2 °F 20.8 °F 23.9 °F 77% 30.11 in 10.0 mi South 11.5 mph 18.4 mph N/A   Scattered Clouds
9:35 AM 30.7 °F 20.0 °F 23.9 °F 76% 30.11 in 10.0 mi SSW 15.0 mph 20.7 mph N/A   Clear
10:15 AM 32.0 °F 21.6 °F 24.4 °F 74% 30.12 in 10.0 mi SSW 15.0 mph 20.7 mph N/A   Clear
10:35 AM 32.9 °F 24.1 °F 24.3 °F 71% 30.11 in 10.0 mi SSW 11.5 mph 20.7 mph N/A   Clear
10:55 AM 33.1 °F 22.2 °F 23.9 °F 69% 30.09 in 10.0 mi SSW 17.3 mph 29.9 mph N/A   Clear
11:15 AM 33.6 °F 21.6 °F 24.1 °F 68% 30.08 in 10.0 mi SSW 21.9 mph 27.6 mph N/A   Clear
11:35 AM 33.8 °F 23.2 °F 24.1 °F 68% 30.05 in 10.0 mi South 17.3 mph 31.1 mph N/A   Clear
11:55 AM 34.0 °F 23.8 °F 24.4 °F 68% 30.03 in 10.0 mi SSW 16.1 mph 27.6 mph N/A   Clear
12:15 PM 34.2 °F 23.0 °F 24.1 °F 67% 30.01 in 10.0 mi SSW 19.6 mph 27.6 mph N/A   Clear
12:35 PM 34.7 °F 23.4 °F 24.4 °F 66% 29.99 in 10.0 mi SSW 20.7 mph 28.8 mph N/A   Clear
12:55 PM 35.8 °F 26.5 °F 24.8 °F 64% 29.99 in 10.0 mi SSW 15.0 mph 29.9 mph N/A   Clear
1:15 PM 36.5 °F 26.7 °F 25.3 °F 64% 29.97 in 10.0 mi SSW 17.3 mph 28.8 mph N/A   Clear
1:35 PM 37.4 °F 27.5 °F 25.7 °F 63% 29.95 in 10.0 mi SSW 18.4 mph 29.9 mph N/A   Clear
2:15 PM 38.5 °F 28.1 °F 25.9 °F 61% 29.93 in 10.0 mi SSW 21.9 mph 31.1 mph N/A   Clear
2:35 PM 39.0 °F 29.9 °F 25.7 °F 59% 29.92 in 10.0 mi SSW 17.3 mph 28.8 mph N/A   Clear
2:55 PM 38.7 °F 28.6 °F 25.5 °F 59% 29.91 in 10.0 mi SSW 20.7 mph 32.2 mph N/A   Clear
3:15 PM 39.2 °F 30.5 °F 25.5 °F 58% 29.90 in 10.0 mi SSW 16.1 mph 28.8 mph N/A   Clear
3:35 PM 39.0 °F 29.0 °F 25.5 °F 58% 29.89 in 10.0 mi SSW 20.7 mph 33.4 mph N/A   Clear
3:54 PM 39.2 °F 29.3 °F 26.2 °F 60% 29.89 in 10.0 mi SW 20.7 mph 33.4 mph N/A   Clear
4:15 PM 39.2 °F 29.0 °F 25.5 °F 58% 29.90 in 10.0 mi SW 21.9 mph 29.9 mph N/A   Clear
4:35 PM 38.3 °F 27.3 °F 25.7 °F 61% 29.91 in 10.0 mi SW 24.2 mph 35.7 mph N/A   Clear
4:54 PM 38.1 °F 27.3 °F 25.7 °F 61% 29.91 in 10.0 mi SW 23.0 mph 39.1 mph N/A   Clear
5:15 PM 37.6 °F 26.3 °F 26.6 °F 65% 29.92 in 10.0 mi SW 24.2 mph 35.7 mph N/A   Clear
5:35 PM 37.4 °F 25.2 °F 26.8 °F 66% 29.92 in 10.0 mi SW 28.8 mph 35.7 mph N/A   Clear
6:15 PM 37.4 °F 25.6 °F 27.5 °F 67% 29.92 in 10.0 mi WSW 26.5 mph 41.4 mph N/A   Clear
6:34 PM 37.4 °F 26.1 °F 27.9 °F 68% 29.93 in 10.0 mi WSW 24.2 mph 41.4 mph N/A   Clear
6:55 PM 37.4 °F 27.5 °F 28.4 °F 70% 29.93 in 10.0 mi SW 18.4 mph 36.8 mph N/A   Clear
7:14 PM 37.4 °F 25.9 °F 28.9 °F 71% 29.93 in 10.0 mi SW 25.3 mph 36.8 mph N/A   Clear
7:35 PM 37.4 °F 27.2 °F 29.1 °F 72% 29.93 in 10.0 mi SW 19.6 mph 34.5 mph N/A   Clear
7:55 PM 37.4 °F 26.1 °F 28.4 °F 70% 29.93 in 10.0 mi WSW 24.2 mph 33.4 mph N/A   Clear
8:14 PM 37.4 °F 25.9 °F 28.4 °F 70% 29.93 in 10.0 mi SW 25.3 mph 38.0 mph N/A   Clear
8:35 PM 37.4 °F 26.1 °F 27.9 °F 68% 29.93 in 10.0 mi SW 24.2 mph 28.8 mph N/A   Clear
8:54 PM 37.0 °F 26.2 °F 27.3 °F 68% 29.93 in 10.0 mi SW 21.9 mph 27.6 mph N/A   Clear
9:15 PM 37.4 °F 26.9 °F 27.3 °F 67% 29.93 in 10.0 mi SW 20.7 mph 31.1 mph N/A   Clear
9:34 PM 37.2 °F 27.0 °F 27.5 °F 68% 29.94 in 10.0 mi SW 19.6 mph 27.6 mph N/A   Clear
9:55 PM 37.0 °F 28.1 °F 27.5 °F 68% 29.94 in 10.0 mi SW 15.0 mph 25.3 mph N/A   Clear
10:35 PM 36.9 °F 26.5 °F 27.9 °F 70% 29.95 in 10.0 mi SW 19.6 mph 24.2 mph N/A   Scattered Clouds
10:55 PM 36.5 °F 26.7 °F 28.2 °F 72% 29.95 in 10.0 mi SW 17.3 mph 25.3 mph N/A   Clear
11:15 PM 36.5 °F 25.7 °F 28.4 °F 72% 29.95 in 10.0 mi SW 20.7 mph 27.6 mph N/A   Clear
11:35 PM 36.5 °F 25.7 °F 29.1 °F 75% 29.95 in 10.0 mi SW 20.7 mph 28.8 mph N/A   Clear
11:54 PM 36.5 °F 26.3 °F 29.1 °F 75% 29.95 in 10.0 mi WSW 18.4 mph 31.1 mph N/A   Clear